Kremmling, CO

2:01 PM MST on December 11, 2019 (GMT -0700)
Kremmling

Weather History for K20V - September, 2019

Change the Weather History Date:

Friday, September 27, 2019

  Actual Average Record
Temperature  
Mean Temperature 57 °F -  
Max Temperature 73 °F - 81 °F (2015)
Min Temperature 41 °F - 23 °F (2018)
Degree Days  
Heating Degree Days 8    
Month to date heating degree days 223  
Cooling Degree Days 0    
Month to date cooling degree days 4  
Growing Degree Days 7 (Base 50)    
Moisture  
Dew Point 37 °F    
Average Humidity 54    
Maximum Humidity 82    
Minimum Humidity 23    
Precipitation  
Precipitation 0.00 in - 0.07 in (2012)
Snow  
Snow 0.00 in - - ()
Snow Depth 0.00 in    
Sea Level Pressure  
Sea Level Pressure 29.98 in    
Wind  
Wind Speed 7 mph ()    
Max Wind Speed 22 mph    
Max Gust Speed 36 mph    
Visibility 10.0 miles    
Events Rain    
T = Trace of Precipitation, MM = Missing Value Source: Averaged Metar Reports

Daily Weather History Graph

Daily Weather History Graph

Search for Another Location

Airport or City:

Astronomy

Sep. 27, 2019 Rise Set
Actual Time 6:57 AM MDT 6:54 PM MDT
Civil Twilight 6:30 AM MDT 7:21 PM MDT
Nautical Twilight 5:59 AM MDT 7:53 PM MDT
Astronomical Twilight 5:27 AM MDT 8:24 PM MDT
Moon 5:22 AM MDT (9/27) 6:46 PM MDT (9/27)
Length of Visible Light 12h 50m
Length of Day
11h 56m
Waning Crescent, 2% of the Moon is Illuminated
Sep 27
Waning Crescent
Sep 28
New
Oct 5
First Quarter
Oct 13
Full
Oct 21
Last Quarter

Hourly Weather History & Observations

Time (MDT) Temp. Windchill Dew Point Humidity Pressure Visibility Wind Dir Wind Speed Gust Speed Precip Events Conditions
12:12 AM 55.4 °F - 35.6 °F 47% 30.01 in 10.0 mi WSW 6.9 mph - N/A   Clear
12:30 AM 53.6 °F - 35.6 °F 51% 30.01 in 10.0 mi WSW 4.6 mph - N/A   Clear
1:12 AM 48.2 °F - 33.8 °F 58% 30.01 in 10.0 mi Calm Calm - N/A   Clear
1:30 AM 46.4 °F - 33.8 °F 62% 30.01 in 10.0 mi Calm Calm - N/A   Clear
1:48 AM 44.6 °F 41.4 °F 33.8 °F 66% 30.01 in 10.0 mi ESE 5.8 mph - N/A   Clear
2:12 AM 44.6 °F 40.7 °F 33.8 °F 66% 30.01 in 10.0 mi East 6.9 mph - N/A   Clear
2:30 AM 44.6 °F 41.4 °F 33.8 °F 66% 30.01 in 10.0 mi East 5.8 mph - N/A   Clear
2:48 AM 48.2 °F - 33.8 °F 58% 30.00 in 10.0 mi ESE 5.8 mph - N/A   Clear
3:12 AM 48.2 °F - 33.8 °F 58% 30.00 in 10.0 mi ENE 3.5 mph - N/A   Clear
3:30 AM 48.2 °F - 35.6 °F 62% 29.99 in 10.0 mi East 8.1 mph - N/A   Clear
3:48 AM 44.6 °F 40.2 °F 33.8 °F 66% 29.99 in 10.0 mi ESE 8.1 mph - N/A   Clear
4:12 AM 46.4 °F 42.4 °F 33.8 °F 62% 30.00 in 10.0 mi ESE 8.1 mph - N/A   Clear
4:30 AM 48.2 °F - 35.6 °F 62% 30.00 in 10.0 mi ESE 5.8 mph - N/A   Clear
4:48 AM 44.6 °F 42.2 °F 33.8 °F 66% 29.99 in 10.0 mi ESE 4.6 mph - N/A   Clear
5:12 AM 48.2 °F - 35.6 °F 62% 29.99 in 10.0 mi Calm Calm - N/A   Clear
5:30 AM 48.2 °F - 35.6 °F 62% 29.98 in 10.0 mi ESE 3.5 mph - N/A   Clear
5:48 AM 46.4 °F - 35.6 °F 66% 29.99 in 10.0 mi Calm Calm - N/A   Clear
6:12 AM 42.8 °F - 33.8 °F 70% 29.99 in 10.0 mi Calm Calm - N/A   Clear
6:30 AM 41.0 °F 36.4 °F 33.8 °F 76% 29.99 in 10.0 mi ESE 6.9 mph - N/A   Clear
6:48 AM 42.8 °F - 33.8 °F 70% 29.99 in 10.0 mi Calm Calm - N/A   Clear
7:11 AM 44.6 °F - 35.6 °F 71% 29.99 in 10.0 mi Calm Calm - N/A   Mostly Cloudy
7:28 AM 44.6 °F 42.2 °F 33.8 °F 66% 29.99 in 10.0 mi East 4.6 mph - N/A   Scattered Clouds
7:51 AM 44.6 °F 41.4 °F 35.6 °F 71% 29.99 in 10.0 mi East 5.8 mph - N/A   Overcast
8:12 AM 48.2 °F - 35.6 °F 62% 29.99 in 10.0 mi ENE 4.6 mph - N/A   Overcast
8:48 AM 50.0 °F - 35.6 °F 58% 29.99 in 10.0 mi East 8.1 mph - N/A   Scattered Clouds
9:11 AM 48.2 °F - 35.6 °F 62% 29.99 in 10.0 mi ESE 4.6 mph - N/A   Scattered Clouds
9:29 AM 53.6 °F - 37.4 °F 54% 29.99 in 10.0 mi SE 3.5 mph - N/A   Scattered Clouds
9:53 AM 60.8 °F - 37.4 °F 42% 29.99 in 10.0 mi WSW 17.3 mph 21.9 mph N/A   Clear
10:12 AM 64.4 °F - 37.4 °F 37% 29.98 in 10.0 mi SW 13.8 mph 26.5 mph N/A   Clear
10:30 AM 64.4 °F - 37.4 °F 37% 29.98 in 10.0 mi West 16.1 mph 23.0 mph N/A   Clear
10:48 AM 66.2 °F - 37.4 °F 35% 29.97 in 10.0 mi WSW 17.3 mph 25.3 mph N/A   Scattered Clouds
11:12 AM 68.0 °F - 37.4 °F 33% 29.96 in 10.0 mi SW 19.6 mph 27.6 mph N/A   Clear
11:30 AM 68.0 °F - 37.4 °F 33% 29.95 in 10.0 mi SW 13.8 mph 25.3 mph N/A   Clear
11:48 AM 68.0 °F - 35.6 °F 30% 29.94 in 10.0 mi WSW 12.7 mph 29.9 mph N/A   Scattered Clouds
12:12 PM 69.8 °F - 35.6 °F 28% 29.94 in 10.0 mi WSW 19.6 mph 28.8 mph N/A   Scattered Clouds
12:30 PM 73.4 °F - 35.6 °F 25% 29.93 in 10.0 mi WSW 19.6 mph 29.9 mph N/A   Clear
12:48 PM 73.4 °F - 33.8 °F 23% 29.93 in 10.0 mi WSW 21.9 mph 32.2 mph N/A   Mostly Cloudy
1:12 PM 68.0 °F - 32.0 °F 26% 29.91 in 10.0 mi SW 20.7 mph 28.8 mph N/A   Overcast
1:30 PM 73.4 °F - 33.8 °F 23% 29.91 in 10.0 mi WSW 17.3 mph 27.6 mph N/A   Mostly Cloudy
1:48 PM 73.4 °F - 33.8 °F 23% 29.91 in 10.0 mi West 18.4 mph 27.6 mph N/A   Mostly Cloudy
2:12 PM 68.0 °F - 35.6 °F 30% 29.91 in 10.0 mi WSW 16.1 mph 28.8 mph N/A Rain Light Rain
2:30 PM 69.8 °F - 33.8 °F 27% 29.89 in 10.0 mi WSW 11.5 mph 17.3 mph N/A   Scattered Clouds
2:48 PM 68.0 °F - 32.0 °F 26% 29.89 in 10.0 mi West 15.0 mph 28.8 mph N/A   Mostly Cloudy
3:12 PM 68.0 °F - 35.6 °F 30% 29.89 in 10.0 mi NW 5.8 mph 24.2 mph N/A Rain Light Rain
3:30 PM 68.0 °F - 32.0 °F 26% 29.88 in 10.0 mi West 16.1 mph 19.6 mph N/A   Mostly Cloudy
3:48 PM 62.6 °F - 33.8 °F 34% 29.90 in 10.0 mi NW 21.9 mph 35.7 mph N/A Rain Light Rain
4:12 PM 59.0 °F - 35.6 °F 42% 29.91 in 10.0 mi NW 16.1 mph 25.3 mph N/A   Overcast
4:30 PM 60.8 °F - 35.6 °F 39% 29.91 in 10.0 mi NW 12.7 mph 21.9 mph N/A   Mostly Cloudy
4:48 PM 59.0 °F - 37.4 °F 45% 29.92 in 10.0 mi NW 13.8 mph 26.5 mph N/A   Mostly Cloudy
5:12 PM 59.0 °F - 37.4 °F 45% 29.94 in 10.0 mi NW 11.5 mph 19.6 mph N/A   Mostly Cloudy
5:30 PM 59.0 °F - 37.4 °F 45% 29.95 in 10.0 mi NW 5.8 mph - N/A   Overcast
5:48 PM 59.0 °F - 35.6 °F 42% 29.96 in 10.0 mi NNW 3.5 mph - N/A   Overcast
6:12 PM 59.0 °F - 37.4 °F 45% 29.98 in 10.0 mi NNW 5.8 mph - N/A   Mostly Cloudy
6:30 PM 55.4 °F - 39.2 °F 54% 30.00 in 10.0 mi West 8.1 mph - N/A Rain Rain
6:48 PM 53.6 °F - 41.0 °F 62% 30.00 in 10.0 mi North 13.8 mph 25.3 mph N/A Rain Light Rain
7:12 PM 53.6 °F - 41.0 °F 62% 30.01 in 10.0 mi NNW 6.9 mph - N/A   Overcast
7:30 PM 53.6 °F - 41.0 °F 62% 30.02 in 10.0 mi Calm Calm - N/A   Overcast
7:48 PM 53.6 °F - 42.8 °F 67% 30.01 in 10.0 mi East 8.1 mph - N/A Rain Light Rain
8:12 PM 50.0 °F - 42.8 °F 76% 30.03 in 10.0 mi SE 15.0 mph 20.7 mph N/A   Light Drizzle
8:30 PM 51.8 °F - 42.8 °F 71% 30.04 in 10.0 mi ESE 4.6 mph - N/A   Drizzle
8:48 PM 50.0 °F - 42.8 °F 76% 30.02 in 10.0 mi ESE 11.5 mph - N/A   Overcast
9:12 PM 50.0 °F - 42.8 °F 76% 30.02 in 10.0 mi ESE 8.1 mph - N/A   Mostly Cloudy
9:30 PM 50.0 °F - 42.8 °F 76% 30.02 in 10.0 mi NE 6.9 mph - N/A   Mostly Cloudy
9:48 PM 50.0 °F - 42.8 °F 76% 30.02 in 10.0 mi East 12.7 mph - N/A   Mostly Cloudy
10:12 PM 48.2 °F - 42.8 °F 82% 30.02 in 10.0 mi ESE 6.9 mph - N/A   Overcast
10:30 PM 50.0 °F - 42.8 °F 76% 30.02 in 10.0 mi Calm Calm - N/A   Scattered Clouds
10:48 PM 50.0 °F - 42.8 °F 76% 30.02 in 10.0 mi Calm Calm - N/A   Mostly Cloudy
11:12 PM 50.0 °F - 42.8 °F 76% 30.01 in 10.0 mi Calm Calm - N/A   Scattered Clouds
11:30 PM 48.2 °F - 42.8 °F 82% 30.01 in 10.0 mi WSW 4.6 mph - N/A   Scattered Clouds
11:48 PM 48.2 °F - 42.8 °F 82% 30.02 in 10.0 mi Calm Calm - N/A   Mostly Cloudy